Location: Linton
(52.0940°N, 0.2850°E)
Time: 23:24:58
(UTC+00:00)

Envisat - Visible Passes

Search period start: 25 February 2018 00:00
Search period end: 07 March 2018 00:00
Orbit: 764 x 766 km, 98.2° (Epoch: 25 February)

Date Brightness Start Highest point End Pass type
(mag) Time Alt. Az. Time Alt. Az. Time Alt. Az.
25 Feb 3.8 18:09:39 10° ESE 18:14:03 31° ENE 18:18:29 10° N visible
25 Feb 3.9 19:48:00 10° S 19:52:55 49° W 19:57:51 10° NNW visible
26 Feb 2.9 19:11:00 10° SSE 19:16:05 87° ENE 19:21:14 10° NNW visible
26 Feb 5.7 20:52:45 10° SW 20:55:50 16° W 20:58:57 10° NW visible
27 Feb 3.3 18:34:38 10° SE 18:39:28 46° ENE 18:44:20 10° N visible
27 Feb 4.8 20:14:12 10° SSW 20:18:41 31° W 20:23:10 10° NNW visible
28 Feb 3.5 19:36:43 10° S 19:41:44 59° W 19:46:47 10° NNW visible
01 Mar 2.9 18:59:55 10° SSE 19:04:58 73° ENE 19:10:04 10° NNW visible
01 Mar 5.5 20:40:55 10° SW 20:44:33 19° W 20:48:12 10° NW visible
02 Mar 3.5 18:23:43 10° SE 18:28:24 39° ENE 18:33:06 10° N visible
02 Mar 4.4 20:02:46 10° SSW 20:07:27 37° W 20:12:11 10° NNW visible
03 Mar 3.2 19:25:29 10° S 19:30:34 72° WSW 19:35:40 10° NNW visible
03 Mar 5.9 21:08:37 10° WSW 21:10:31 12° W 21:12:26 10° WNW visible
04 Mar 3.0 18:48:52 10° SSE 18:53:51 60° ENE 18:58:53 10° N visible
04 Mar 5.2 20:29:14 10° SW 20:33:17 24° W 20:37:21 10° NW visible
05 Mar 3.7 18:12:51 10° SE 18:17:20 33° ENE 18:21:51 10° N visible
05 Mar 4.1 19:51:24 10° S 19:56:15 45° W 20:01:08 10° NNW visible
06 Mar 3.0 19:14:19 10° SSE 19:19:24 87° WSW 19:24:32 10° NNW visible
06 Mar 5.8 20:56:23 10° WSW 20:59:12 15° W 21:02:03 10° NW visible
